PST,Max TemperatureF,Mean TemperatureF,Min TemperatureF,Max Dew PointF,MeanDew PointF,Min DewpointF,Max Humidity, Mean Humidity, Min Humidity, Max Sea Level PressureIn, Mean Sea Level PressureIn, Min Sea Level PressureIn, Max VisibilityMiles, Mean VisibilityMiles, Min VisibilityMiles, Max Wind SpeedMPH, Mean Wind SpeedMPH, Max Gust SpeedMPH,PrecipitationIn, CloudCover, Events, WindDirDegrees
2013-1-1,25,15,5,19,18,16,81,77,74,30.68,30.63,30.55,10,10,10,5,2,,T,8,,303
2013-1-2,28,19,10,19,19,17,85,80,75,30.67,30.62,30.55,10,10,10,7,3,,0.00,8,,294
2013-1-3,23,14,4,19,18,16,81,77,72,30.53,30.45,30.39,10,10,7,6,2,,0.00,8,Snow,266
2013-1-4,27,25,22,20,19,18,88,78,68,30.48,30.45,30.37,10,9,5,5,1,6,T,8,Snow,60
2013-1-5,34,28,22,25,23,19,93,87,78,30.47,30.32,30.20,10,5,1,7,3,,0.02,8,Snow,287
2013-1-6,30,27,23,27,24,22,100,89,81,30.25,30.17,30.08,10,5,0,7,1,,0.10,8,Fog,94
2013-1-7,47,37,26,32,26,24,100,79,58,30.09,29.94,29.82,10,4,0,28,5,37,0.07,6,Fog-Snow,330
2013-1-8,41,37,32,32,30,26,100,89,75,30.12,29.97,29.73,10,3,0,10,2,,0.10,6,Fog-Rain-Snow,180
2013-1-9,41,36,31,33,28,21,89,63,53,29.82,29.69,29.59,10,10,8,16,8,24,0.00,1,,346
2013-1-10,34,27,20,22,18,13,68,60,50,30.04,29.94,29.83,10,10,10,12,7,,0.07,2,,306
2013-1-11,30,23,15,17,15,12,77,68,58,30.31,30.23,30.05,10,10,9,12,3,13,0.00,4,,273
2013-1-12,23,13,3,14,11,8,84,75,62,30.43,30.38,30.31,10,10,10,7,3,,0.00,0,,300
2013-1-13,21,15,9,14,11,7,81,75,65,30.52,30.47,30.41,10,10,10,13,4,,T,2,,293
2013-1-14,27,22,16,18,16,15,81,74,66,30.52,30.43,30.36,10,10,10,4,0,,0.04,3,,273
2013-1-15,28,21,13,18,15,12,93,83,71,30.66,30.62,30.54,10,9,6,6,0,,0.00,1,,314
2013-1-16,28,19,9,22,19,16,89,84,78,30.69,30.64,30.61,10,9,7,6,2,,T,8,,261
2013-1-17,25,17,9,21,21,20,85,81,78,30.63,30.55,30.42,10,10,9,6,2,,T,8,,285
2013-1-18,26,25,24,22,21,19,88,85,81,30.42,30.37,30.30,10,8,2,8,2,16,T,8,Snow,288
2013-1-19,28,26,23,21,20,19,88,82,75,30.52,30.46,30.41,10,10,9,6,1,7,0.00,5,,271
2013-1-20,28,17,6,21,19,18,93,90,80,30.60,30.52,30.43,9,6,1,5,1,,0.00,7,Snow,332
2013-1-21,22,21,20,20,18,17,92,88,84,30.49,30.42,30.33,10,4,0,7,2,9,T,8,Fog,312
2013-1-22,23,15,6,17,16,15,92,84,78,30.40,30.33,30.24,10,10,6,5,1,,0.00,7,,260
2013-1-23,34,26,18,22,19,16,92,83,77,30.23,30.07,29.96,10,8,2,6,1,,0.11,6,Snow,267
2013-1-24,30,26,22,22,20,17,93,86,78,30.33,30.24,30.12,10,7,2,6,3,,0.02,6,Snow,76
2013-1-25,37,33,29,23,20,18,93,83,72,30.19,30.09,29.96,10,10,7,6,2,,0.26,5,,323
2013-1-26,36,33,29,25,24,21,93,83,78,30.01,29.98,29.93,10,10,4,5,1,,T,8,Snow,248
2013-1-27,30,28,26,25,24,23,93,88,85,30.06,30.01,29.94,10,8,4,7,1,,0.02,8,,266
2013-1-28,32,30,27,25,24,23,93,88,79,29.99,29.95,29.90,10,7,1,5,2,,0.05,5,,318
2013-1-29,34,30,25,27,25,22,89,78,60,30.22,30.13,29.92,10,9,7,5,2,,0.09,1,,101
2013-1-30,53,44,34,32,30,27,75,58,41,30.24,30.18,30.13,10,10,10,31,13,38,0.00,0,,290
2013-1-31,37,34,30,33,31,30,79,70,54,30.27,30.24,30.20,10,10,10,14,7,,T,2,,295